Temp
-10 -10 -10 -10 -10 -10 -10 -11 -10 -10 -10 -10 -10 -10 -10 -10 -11 -10 -10 -10 -10 -10 -10 -10 -10 -10 -10 -10 -10 -10 -10 -10 -10 -10 -11 -11 -11 -11 -11 -11 -11 -11 -11
-10 -11 -11 -10 -11 -10 -10 -11 -11 -11 -11 -10 -10 -10 -11 -11 -11 -11 -11 -10 -10 -10 -10 -10 -10 -10 -10 -10 -10 -10 -10 -10 -10 -10 -10 -11 -11 -11 -11 -11 -11 -11 -11
-11 -11 -11 -11 -11 -11 -10 -11 -11 -11 -11 -11 -11 -11 -11 -11 -11 -11 -11 -11 -10 -10 -10 -10 -11 -11 -11 -11 -10 -10 -10 -10 -11 -11 -11 -11 -11 -11 -11 -11 -11 -11 -11
-11 -11 -11 -11 -11 -11 -11 -11 -11 -11 -11 -11 -11 -11 -11 -11 -11 -11 -11 -11 -11 -10 -10 -10 -11 -11 -11 -11 -11 -11 -11 -11 -11 -11 -11 -11 -11 -11 -11 -11 -11 -11 -11
-10 -11 -11 -11 -11 -11 -11 -11 -11 -11 -11 -11 -11 -11 -11 -11 -11 -11 -11 -11 -11 -11 -11 -11 -11 -11 -11 -11 -11 -11 -11 -11 -11 -11 -11 -11 -11 -11 -11 -12 -12 -12 -11
-10 -11 -11 -11 -11 -11 -11 -11 -11 -11 -11 -11 -11 -11 -11 -11 -11 -11 -11 -11 -11 -11 -11 -11 -11 -11 -11 -11 -11 -11 -11 -11 -11 -11 -11 -11 -11 -11 -11 -11 -11 -12 -12
-11 -12 -12 -12 -12 -11 -11 -11 -11 -11 -12 -11 -11 -11 -11 -11 -11 -12 -11 -11 -11 -11 -11 -11 -11 -11 -11 -11 -11 -11 -11 -11 -11 -11 -11 -11 -11 -11 -11 -11 -11 -11 -12
-11 -12 -12 -12 -12 -12 -12 -12 -12 -11 -12 -11 -11 -11 -11 -11 -12 -12 -12 -12 -12 -12 -11 -11 -11 -11 -12 -11 -11 -11 -11 -11 -11 -11 -11 -11 -11 -11 -11 -11 -11 -11 -11
-12 -13 -13 -12 -12 -12 -12 -12 -12 -11 -12 -11 -11 -11 -11 -11 -11 -11 -11 -11 -11 -12 -12 -12 -11 -11 -12 -11 -11 -11 -11 -11 -11 -11 -11 -11 -11 -11 -11 -11 -11 -11 -11
-12 -13 -13 -12 -13 -12 -12 -12 -12 -12 -11 -11 -11 -11 -11 -11 -11 -11 -11 -11 -11 -11 -11 -11 -11 -11 -11 -11 -11 -11 -11 -11 -11 -11 -11 -11 -11 -11 -11 -11 -11 -11 -11
-11 -13 -13 -13 -13 -13 -12 -12 -12 -12 -11 -11 -11 -11 -11 -11 -11 -11 -11 -11 -11 -11 -11 -11 -11 -11 -11 -11 -11 -11 -11 -11 -11 -11 -11 -11 -11 -11 -11 -11 -11 -11 -11
-11 -12 -13 -13 -13 -13 -12 -12 -12 -11 -11 -11 -11 -11 -11 -11 -11 -11 -11 -11 -11 -12 -11 -11 -11 -11 -12 -12 -11 -11 -11 -11 -11 -11 -11 -11 -11 -11 -11 -11 -11 -11 -11
-11 -12 -13 -13 -13 -12 -12 -12 -12 -11 -11 -11 -11 -10 -10 -11 -11 -11 -10 -11 -11 -11 -11 -11 -11 -11 -12 -12 -12 -11 -11 -11 -11 -11 -11 -11 -11 -12 -12 -11 -11 -11 -11
-12 -12 -13 -13 -13 -12 -12 -12 -12 -12 -11 -11 -11 -11 -11 -11 -11 -11 -11 -11 -11 -11 -11 -11 -11 -11 -11 -11 -12 -12 -12 -12 -12 -12 -12 -12 -12 -12 -12 -12 -12 -12 -11
-12 -12 -13 -12 -12 -12 -12 -12 -12 -12 -11 -11 -11 -11 -11 -11 -11 -11 -11 -11 -11 -11 -11 -11 -11 -11 -11 -12 -12 -12 -12 -12 -12 -12 -12 -12 -12 -12 -12 -12 -12 -12 -12
-12 -12 -12 -12 -12 -12 -12 -12 -12 -12 -12 -11 -11 -11 -11 -11 -11 -11 -11 -11 -11 -11 -11 -11 -11 -11 -11 -11 -12 -12 -12 -12 -12 -12 -12 -12 -12 -12 -12 -12 -12 -12 -12
-12 -12 -12 -12 -12 -12 -12 -12 -12 -12 -12 -12 -12 -11 -11 -11 -11 -11 -11 -11 -11 -11 -11 -11 -11 -11 -11 -11 -11 -11 -12 -12 -12 -12 -12 -12 -12 -12 -12 -12 -12 -12 -12
-12 -12 -12 -11 -11 -12 -12 -12 -12 -12 -12 -12 -12 -12 -12 -11 -11 -11 -11 -11 -11 -11 -11 -11 -11 -11 -11 -12 -12 -12 -12 -12 -12 -12 -12 -12 -12 -12 -12 -12 -12 -12 -12
-12 -12 -12 -11 -11 -12 -12 -12 -12 -12 -12 -12 -12 -12 -11 -12 -12 -11 -11 -11 -11 -11 -11 -11 -11 -12 -12 -12 -12 -12 -12 -12 -12 -13 -13 -12 -12 -12 -12 -12 -12 -12 -12
-12 -12 -12 -12 -11 -11 -11 -12 -12 -12 -12 -12 -12 -12 -12 -12 -11 -11 -11 -11 -11 -11 -11 -12 -12 -12 -12 -12 -12 -12 -12 -12 -12 -12 -12 -12 -12 -12 -12 -13 -12 -12 -12
-11 -11 -12 -11 -11 -11 -12 -12 -12 -12 -12 -12 -12 -12 -12 -11 -11 -12 -12 -12 -11 -12 -12 -12 -12 -12 -12 -13 -13 -13 -13 -13 -13 -13 -13 -13 -13 -13 -13 -12 -12 -12 -12
-11 -11 -11 -12 -12 -11 -11 -12 -11 -12 -12 -11 -12 -12 -12 -12 -12 -12 -12 -12 -12 -12 -12 -12 -13 -12 -13 -13 -13 -13 -13 -13 -13 -13 -13 -13 -13 -13 -13 -13 -13 -13 -13
-11 -11 -12 -12 -12 -12 -12 -12 -12 -12 -11 -11 -12 -12 -12 -12 -12 -12 -12 -12 -12 -12 -12 -13 -12 -13 -13 -13 -13 -13 -12 -12 -12 -13 -13 -13 -12 -13 -13 -13 -13 -12 -13
-11 -11 -11 -12 -12 -12 -12 -12 -12 -12 -12 -12 -12 -12 -12 -12 -12 -12 -12 -12 -12 -12 -13 -13 -13 -13 -13 -13 -13 -13 -13 -12 -12 -12 -12 -12 -12 -12 -12 -13 -13 -13 -13
-11 -11 -11 -11 -11 -12 -12 -12 -12 -12 -12 -12 -12 -12 -12 -12 -12 -12 -12 -12 -13 -13 -13 -13 -13 -13 -13 -13 -13 -13 -13 -12 -12 -12 -11 -12 -12 -13 -13 -13 -13 -13 -13
-11 -11 -11 -11 -11 -11 -11 -11 -11 -12 -12 -12 -13 -12 -12 -12 -12 -12 -12 -12 -13 -13 -13 -13 -13 -13 -13 -13 -13 -13 -12 -12 -12 -12 -11 -11 -11 -12 -13 -14 -14 -14 -14
Height
5873 5874 5874 5875 5876 5877 5875 5875 5875 5875 5876 5875 5875 5874 5873 5872 5872 5872 5872 5871 5871 5870 5869 5869 5869 5868 5867 5867 5866 5865 5864 5864 5863 5862 5862 5861 5860 5860 5859 5858 5858 5857 5857
5872 5872 5873 5873 5874 5874 5873 5873 5874 5875 5875 5874 5874 5873 5872 5872 5872 5872 5871 5871 5871 5870 5869 5869 5868 5867 5867 5866 5865 5865 5864 5863 5863 5862 5861 5860 5859 5858 5858 5858 5857 5856 5855
5869 5869 5870 5871 5871 5872 5871 5871 5873 5874 5874 5874 5873 5873 5872 5872 5871 5871 5871 5871 5870 5870 5870 5868 5867 5866 5866 5865 5864 5864 5864 5863 5862 5861 5860 5859 5859 5858 5857 5857 5856 5855 5854
5866 5866 5867 5869 5869 5870 5870 5870 5871 5872 5872 5873 5872 5872 5872 5871 5871 5871 5870 5871 5871 5871 5869 5868 5867 5866 5865 5864 5863 5863 5863 5862 5861 5861 5859 5858 5857 5856 5855 5855 5854 5854 5853
5863 5862 5864 5866 5868 5868 5869 5869 5870 5871 5872 5870 5870 5871 5871 5871 5870 5871 5869 5870 5870 5870 5870 5868 5867 5866 5865 5864 5864 5864 5863 5862 5861 5860 5858 5857 5855 5855 5854 5854 5853 5852 5851
5858 5859 5862 5864 5865 5867 5867 5867 5868 5869 5869 5868 5869 5869 5869 5869 5869 5869 5868 5869 5870 5870 5870 5869 5867 5866 5865 5864 5864 5863 5863 5862 5860 5859 5858 5857 5856 5855 5854 5853 5852 5851 5850
5855 5857 5860 5862 5863 5865 5865 5866 5867 5867 5867 5866 5867 5867 5867 5868 5868 5867 5867 5867 5868 5869 5869 5868 5867 5865 5865 5864 5863 5862 5861 5861 5859 5858 5857 5857 5856 5855 5854 5853 5852 5850 5849
5852 5854 5856 5858 5861 5862 5863 5864 5864 5865 5865 5865 5865 5865 5866 5866 5866 5866 5866 5866 5867 5867 5867 5868 5866 5865 5864 5863 5862 5861 5860 5859 5858 5858 5856 5855 5855 5854 5853 5852 5851 5850 5849
5848 5850 5852 5856 5857 5859 5860 5862 5863 5863 5863 5863 5864 5864 5863 5864 5863 5863 5864 5864 5865 5865 5865 5865 5864 5863 5863 5862 5861 5861 5860 5859 5859 5857 5856 5855 5854 5854 5852 5851 5850 5850 5849
5844 5846 5848 5851 5855 5857 5859 5860 5860 5861 5861 5861 5862 5861 5861 5861 5861 5861 5862 5862 5863 5863 5863 5863 5862 5862 5861 5861 5861 5860 5859 5859 5858 5857 5856 5855 5853 5852 5852 5851 5849 5848 5847
5840 5842 5845 5849 5852 5853 5856 5857 5858 5858 5858 5858 5859 5859 5859 5860 5859 5860 5860 5860 5860 5860 5861 5861 5860 5860 5859 5859 5859 5859 5858 5858 5857 5856 5855 5854 5853 5852 5850 5849 5848 5847 5845
5838 5840 5843 5846 5848 5851 5853 5854 5855 5855 5855 5856 5857 5857 5857 5857 5857 5857 5857 5857 5857 5858 5858 5858 5858 5858 5857 5857 5856 5856 5856 5856 5855 5855 5854 5853 5852 5851 5849 5849 5848 5846 5844
5836 5838 5841 5844 5846 5848 5850 5851 5852 5852 5853 5854 5854 5855 5854 5854 5854 5854 5854 5854 5855 5855 5856 5855 5856 5856 5855 5855 5854 5853 5853 5853 5853 5852 5851 5851 5850 5849 5848 5847 5845 5844 5844
5835 5836 5838 5841 5842 5844 5845 5848 5848 5849 5850 5851 5852 5852 5851 5851 5851 5852 5852 5852 5853 5854 5853 5854 5853 5853 5853 5853 5853 5853 5852 5851 5850 5850 5849 5848 5847 5847 5846 5845 5843 5842 5841
5832 5833 5834 5837 5838 5840 5842 5844 5844 5845 5847 5848 5849 5848 5848 5848 5849 5849 5849 5850 5851 5852 5852 5852 5851 5851 5851 5851 5851 5850 5849 5849 5847 5846 5846 5845 5844 5843 5841 5841 5839 5838 5837
5827 5829 5830 5832 5833 5836 5838 5839 5840 5842 5842 5843 5844 5844 5845 5845 5846 5846 5846 5847 5848 5849 5849 5848 5848 5848 5848 5848 5848 5847 5846 5845 5844 5843 5842 5841 5839 5838 5837 5836 5835 5834 5833
5822 5823 5825 5827 5829 5831 5832 5833 5835 5837 5837 5838 5838 5840 5841 5842 5842 5843 5842 5843 5844 5845 5844 5844 5844 5844 5844 5844 5844 5844 5843 5841 5840 5839 5837 5835 5833 5832 5831 5830 5829 5829 5827
5816 5817 5819 5822 5823 5825 5826 5829 5831 5832 5833 5834 5835 5836 5836 5837 5838 5839 5838 5839 5841 5841 5840 5839 5839 5838 5838 5838 5839 5840 5839 5838 5837 5836 5833 5831 5829 5827 5826 5824 5824 5822 5821
5809 5810 5812 5815 5816 5818 5820 5824 5825 5826 5828 5829 5830 5831 5831 5832 5834 5834 5834 5834 5835 5835 5834 5833 5833 5834 5833 5834 5834 5833 5833 5833 5832 5831 5828 5826 5824 5822 5820 5819 5817 5815 5814
5801 5803 5804 5807 5810 5813 5815 5818 5820 5821 5822 5824 5824 5826 5827 5827 5828 5829 5829 5830 5830 5830 5829 5829 5828 5829 5828 5827 5828 5827 5827 5827 5826 5825 5822 5820 5818 5816 5814 5811 5809 5807 5805
5793 5795 5797 5800 5803 5807 5809 5811 5814 5816 5816 5818 5819 5820 5821 5822 5822 5823 5823 5824 5824 5824 5823 5823 5822 5822 5822 5821 5821 5820 5819 5819 5817 5817 5816 5814 5812 5809 5806 5804 5802 5799 5797
5786 5789 5791 5794 5796 5800 5804 5806 5808 5808 5810 5811 5812 5813 5813 5814 5815 5816 5816 5816 5817 5817 5816 5815 5815 5815 5815 5813 5813 5812 5813 5812 5810 5808 5806 5804 5802 5800 5798 5794 5791 5788 5786
5777 5781 5784 5787 5788 5791 5794 5798 5800 5801 5803 5806 5805 5805 5806 5807 5808 5809 5810 5810 5809 5809 5809 5808 5808 5808 5807 5806 5804 5802 5800 5802 5801 5800 5798 5794 5792 5791 5788 5784 5780 5777 5775
5770 5772 5773 5776 5779 5782 5786 5789 5792 5793 5795 5798 5797 5798 5799 5800 5800 5801 5801 5801 5801 5800 5800 5799 5799 5799 5797 5796 5795 5793 5791 5790 5790 5790 5790 5787 5784 5780 5778 5774 5770 5766 5763
5757 5763 5765 5768 5771 5774 5778 5782 5784 5785 5787 5788 5790 5791 5792 5792 5793 5793 5793 5792 5792 5791 5789 5789 5788 5787 5787 5786 5784 5783 5781 5778 5777 5774 5772 5773 5768 5766 5761 5757 5754 5751 5748
5745 5751 5757 5760 5763 5765 5768 5772 5774 5775 5777 5779 5781 5782 5783 5784 5784 5785 5785 5784 5783 5782 5781 5780 5779 5777 5776 5775 5774 5772 5769 5768 5766 5761 5758 5754 5750 5748 5743 5739 5735 5732 5730
Wind_Speed
10 12 15 17 21 20 18 12 11 9 8 6 6 7 8 7 7 7 8 8 7 7 8 9 10 9 8 8 9 11 12 11 11 11 11 10 10 11 11 10 9 10 11
11 15 18 21 19 18 12 11 10 11 11 9 5 7 9 9 7 7 8 8 8 7 8 8 8 7 8 8 10 11 11 10 9 9 10 10 10 10 11 9 9 9 9
13 19 20 21 12 12 12 8 11 12 13 13 7 7 8 7 7 6 7 7 7 7 7 6 5 6 7 7 8 8 9 8 9 8 9 9 10 9 10 10 10 10 10
15 20 15 16 12 9 11 9 12 13 13 14 12 9 8 7 6 4 6 5 6 7 7 6 4 5 6 7 7 6 7 8 7 7 7 7 8 8 9 9 10 11 10
19 12 12 14 12 12 12 10 12 12 14 13 15 12 9 7 6 4 3 3 4 5 5 4 4 6 7 7 6 7 8 7 6 6 6 5 5 5 5 8 10 11 12
9 8 11 13 15 16 12 12 11 12 13 14 15 12 9 7 6 6 4 4 4 5 4 4 3 4 5 5 7 7 8 8 6 6 5 6 8 8 8 8 9 10 12
11 8 12 13 16 15 14 14 12 13 14 15 15 14 11 8 7 6 5 5 7 7 5 3 2 3 3 4 4 5 6 8 8 6 7 7 7 8 9 10 10 11 12
9 11 15 17 15 12 12 13 13 16 15 16 15 14 12 10 7 6 7 7 8 9 5 4 4 4 3 3 3 4 4 5 6 6 5 5 7 7 8 9 11 11 11
14 14 12 18 17 13 14 17 20 16 15 16 15 14 12 10 8 7 7 8 8 7 4 3 4 3 3 1 2 3 4 6 7 7 6 5 4 5 6 6 8 9 11
19 14 17 22 17 24 22 19 17 17 16 14 15 13 13 12 9 8 9 10 9 7 6 4 4 4 3 3 1 1 2 4 5 5 6 6 6 5 6 7 7 7 7
12 15 19 19 22 18 18 17 17 18 15 14 14 14 13 13 11 10 12 12 11 9 8 8 8 7 6 4 4 2 2 2 4 4 5 5 6 6 5 5 6 7 7
10 11 17 17 15 18 17 17 19 16 15 16 16 15 14 14 13 13 13 12 12 11 12 12 12 10 9 9 8 7 6 6 6 7 7 7 7 7 6 7 7 6 6
14 15 16 20 21 17 16 19 19 16 16 17 17 16 14 15 14 15 13 12 14 13 14 14 14 13 13 13 12 11 10 10 10 10 11 11 11 11 11 10 9 9 10
18 19 21 21 20 19 17 20 17 18 18 17 17 17 16 16 15 14 13 13 15 16 16 15 16 15 16 16 15 14 14 14 14 14 15 15 15 15 15 16 15 14 14
23 23 22 25 24 22 19 21 19 20 20 18 17 17 16 16 16 14 13 13 15 17 17 17 17 17 18 18 17 17 17 18 18 18 18 19 19 20 19 18 18 18 18
29 28 29 29 27 22 22 22 22 23 21 18 18 18 18 18 16 15 13 14 16 17 16 18 19 19 19 19 18 17 17 17 19 19 20 21 22 23 22 22 21 21 22
29 35 34 33 31 26 28 26 26 25 23 22 21 20 19 19 18 18 17 18 20 20 20 19 19 21 21 19 18 17 17 17 20 21 22 24 25 25 24 24 23 24 24
32 31 34 30 29 27 29 30 29 28 26 25 23 21 20 21 22 21 20 21 21 21 20 20 22 23 22 21 20 20 20 20 21 22 24 25 26 27 28 28 29 28 28
30 32 34 30 31 31 31 31 32 31 29 27 24 24 22 22 21 21 22 23 23 23 23 24 25 25 25 25 24 24 24 24 25 25 26 27 29 29 31 33 35 35 35
32 33 37 34 34 33 32 33 33 32 32 27 25 25 22 21 21 22 25 26 26 26 28 27 28 28 29 30 28 29 31 31 31 31 31 32 35 36 37 39 41 42 42
36 39 40 38 39 36 35 34 34 32 31 26 27 30 25 23 24 26 28 29 28 28 30 30 30 31 31 33 34 35 36 37 38 36 37 38 39 40 42 43 44 46 47
28 37 42 39 42 40 38 36 35 35 33 31 27 24 26 29 28 28 29 30 29 30 31 31 31 33 34 35 36 38 37 38 40 40 42 42 42 44 46 47 49 51 53
30 34 38 41 44 42 41 39 37 36 34 31 30 31 31 30 29 30 30 30 30 31 31 32 32 34 35 37 40 41 42 40 40 41 43 46 46 46 47 51 54 56 57
31 36 39 42 45 43 42 41 38 38 36 34 36 33 31 31 32 33 33 32 32 32 33 33 35 37 39 40 42 43 44 46 47 46 46 46 47 50 51 53 57 60 61
38 38 38 38 41 40 40 37 36 36 36 35 35 34 34 34 36 35 35 34 34 35 36 38 39 40 41 43 45 46 47 49 50 50 51 51 53 54 56 57 55 56 57
39 38 38 35 37 40 39 37 36 36 36 37 37 37 37 38 38 38 37 38 40 40 41 42 43 44 45 46 47 47 49 49 51 53 55 57 58 57 55 55 55 52 52
Wind_Direction
302 320 323 324 326 322 327 343 359 4 355 11 15 23 26 14 355 343 336 340 339 347 354 352 348 346 346 350 354 354 353 347 338 334 329 322 319 317 314 309 305 299 296
304 310 313 315 316 319 317 330 341 349 346 345 1 25 24 16 352 346 348 345 344 349 349 347 350 347 353 1 6 3 359 352 342 343 340 334 327 325 320 311 315 310 306
294 302 299 303 296 309 303 318 334 334 342 334 341 2 11 5 352 339 4 10 16 16 8 355 358 5 6 4 2 7 14 8 0 350 344 337 332 324 326 312 321 321 312
283 292 293 291 287 290 292 299 316 324 330 328 327 341 350 350 353 348 13 15 27 18 19 18 17 26 14 359 353 13 28 20 12 359 349 339 339 339 330 321 322 321 316
280 282 285 265 272 276 280 293 304 321 317 325 322 325 329 328 333 322 6 355 7 5 356 17 42 46 36 21 9 13 13 2 3 5 358 339 342 352 343 331 329 324 316
295 268 276 270 264 267 268 284 297 311 313 327 316 309 299 294 302 307 329 343 346 344 346 348 21 17 21 10 3 5 1 10 360 346 353 13 7 4 358 346 338 332 324
270 260 272 260 252 252 255 266 286 301 309 319 309 303 288 288 291 301 325 348 341 349 357 330 335 4 1 2 357 6 17 16 19 2 355 8 16 16 8 2 356 352 343
264 274 259 244 245 242 252 270 289 288 302 305 303 295 281 279 280 298 319 334 337 343 352 327 330 349 344 359 29 35 33 23 23 19 11 5 1 8 13 10 5 360 354
289 251 236 225 233 251 261 278 283 281 291 299 298 282 274 273 279 290 305 315 319 324 318 301 309 322 317 16 22 40 40 32 24 22 8 4 354 349 353 1 8 6 4
281 239 222 226 246 255 264 269 275 287 292 294 289 283 278 270 269 276 280 278 283 286 281 255 250 269 277 301 333 8 3 19 13 16 13 7 7 9 350 340 344 349 356
254 213 206 233 249 249 251 265 283 286 286 283 278 274 274 271 270 269 267 261 261 263 252 246 234 231 234 243 264 264 277 302 314 334 335 336 335 342 357 355 338 331 330
235 195 209 220 224 237 255 275 281 279 279 272 266 261 262 265 267 263 267 268 261 253 247 247 244 234 232 234 237 247 246 260 280 290 297 298 296 302 313 325 325 323 315
234 204 210 219 232 246 264 275 272 270 269 263 259 256 254 259 260 262 266 269 265 256 255 254 256 250 247 248 243 241 244 251 258 265 272 280 287 293 299 300 299 302 306
228 228 229 239 242 247 260 266 265 264 260 256 255 258 254 255 254 258 265 266 265 263 260 263 265 263 257 256 262 266 267 265 269 274 275 278 281 284 290 292 293 293 293
233 237 245 247 247 247 256 262 261 256 252 253 252 250 252 256 261 261 265 268 268 270 274 274 271 270 271 269 272 276 276 279 283 285 287 289 287 286 283 280 281 284 285
238 236 241 246 249 253 258 256 255 249 246 247 250 250 252 254 256 259 264 269 270 273 275 276 277 275 273 274 274 276 277 282 285 288 290 289 290 289 287 287 284 280 280
236 239 240 244 253 250 255 251 247 243 244 241 240 245 249 254 255 256 259 261 264 265 267 269 271 272 272 271 267 268 272 277 282 283 285 285 285 286 285 283 283 283 281
239 243 244 245 244 246 249 249 247 244 248 250 247 246 249 253 257 259 263 268 269 266 266 268 268 266 265 262 263 267 273 280 284 287 286 284 282 283 286 288 290 287 284
237 239 249 247 241 242 246 246 248 246 248 248 249 249 247 250 257 262 263 262 259 258 259 261 263 267 268 266 268 276 281 284 285 286 283 282 282 283 285 285 289 290 287
232 229 240 243 242 243 246 248 249 251 252 242 248 253 250 250 250 256 259 260 259 261 262 263 264 265 269 271 271 277 283 284 283 283 283 284 282 280 283 286 286 287 286
224 231 235 239 245 245 244 246 245 251 255 249 251 252 251 251 251 254 259 263 265 266 267 267 267 268 269 270 272 277 283 285 284 285 286 287 286 282 283 284 283 284 285
226 224 235 236 242 241 244 246 244 247 251 252 255 254 247 249 253 255 258 262 265 266 268 272 272 271 272 275 276 275 275 277 282 283 284 284 284 281 283 284 283 283 282
229 226 226 228 238 243 240 243 245 246 249 253 255 254 253 256 257 259 259 259 261 262 263 267 271 272 271 272 274 276 277 276 273 277 279 281 281 279 279 281 281 282 282
233 228 225 229 234 238 238 241 239 240 243 248 252 255 256 256 259 261 262 265 268 270 271 273 274 274 275 276 276 277 277 279 279 277 279 278 278 279 279 278 280 281 281
230 231 231 229 234 237 238 241 238 241 243 247 253 254 256 257 259 261 265 269 272 275 278 277 274 274 275 276 277 278 280 283 285 286 286 286 286 284 281 279 277 276 275
235 231 232 229 234 238 242 244 240 240 245 249 250 252 253 256 259 262 266 271 274 274 274 273 275 276 277 279 282 285 285 286 288 290 293 294 294 294 292 291 289 285 280